Location: Tierz
(42.1336°N, 0.3549°W)
Time: 15:43:27
(UTC+00:00)

Cosmos 1408 - Pass Details

Date: 29 October 2020
Orbit: 470 x 492 km, 82.6° (Epoch: 25 November)

Event Time Altitude Azimuth Distance (km) Brightness Sun altitude
Rises 18:14:02 0° 357° (N) 2,557 6.2 -14.5°
Reaches altitude 10° 18:16:10 10° 2° (N) 1,676 5.2 -14.9°
Maximum altitude 18:19:45 51° 79° (E) 620 2.7 -15.6°
Drops below altitude 10° 18:23:20 10° 157° (SSE) 1,673 5.1 -16.2°
Sets 18:25:28 0° 162° (SSE) 2,552 6.1 -16.6°
